Location: Peebles
(55.6412°N, 3.1714°W)
Time: 05:48:06
(UTC+01:00)

METEOR 2-8 DEB - Pass Details

Date: 05 July 2022
Orbit: 792 x 830 km, 82.5° (Epoch: 08 August)

Event Time Altitude Azimuth Distance (km) Brightness Sun altitude
Rises 00:30:52 0° 237° (WSW) 3,322 ? -10.9°
Reaches altitude 10° 00:33:49 10° 252° (WSW) 2,388 ? -11.0°
Maximum altitude 00:37:55 22° 302° (WNW) 1,709 ? -11.1°
Drops below altitude 10° 00:42:01 10° 352° (N) 2,383 ? -11.2°
Sets 00:44:57 0° 8° (N) 3,313 ? -11.3°
